TimeEDT,TemperatureF,Dew PointF,Humidity,Sea Level PressureIn,VisibilityMPH,Wind Direction,Wind SpeedMPH,Gust SpeedMPH,PrecipitationIn,Events,Conditions,WindDirDegrees,DateUTC
12:51 AM,66.9,50.0,54,30.39,10.0,Calm,Calm,-,N/A,,Clear,0,2011-10-09 04:51:00
2:51 AM,66.0,51.1,59,30.39,10.0,West,3.5,-,N/A,,Clear,270,2011-10-09 06:51:00
3:51 AM,64.0,52.0,65,30.39,10.0,NW,3.5,-,N/A,,Clear,310,2011-10-09 07:51:00
4:51 AM,63.0,51.1,65,30.39,10.0,WNW,3.5,-,N/A,,Clear,300,2011-10-09 08:51:00
5:51 AM,62.1,51.1,67,30.39,10.0,Calm,Calm,-,N/A,,Clear,0,2011-10-09 09:51:00
6:51 AM,62.1,50.0,65,30.39,10.0,Calm,Calm,-,N/A,,Partly Cloudy,0,2011-10-09 10:51:00
7:51 AM,64.0,50.0,60,30.40,10.0,WNW,3.5,-,N/A,,Clear,290,2011-10-09 11:51:00
8:51 AM,66.0,50.0,56,30.41,10.0,WNW,5.8,-,N/A,,Clear,300,2011-10-09 12:51:00
9:51 AM,69.8,51.8,53,30.41,10.0,WNW,8.1,-,N/A,,Partly Cloudy,300,2011-10-09 13:51:00
10:51 AM,73.0,51.1,46,30.40,10.0,NW,6.9,-,N/A,,Partly Cloudy,320,2011-10-09 14:51:00
11:51 AM,75.9,51.1,42,30.38,10.0,Calm,Calm,-,N/A,,Partly Cloudy,0,2011-10-09 15:51:00
12:51 PM,80.1,51.1,36,30.36,10.0,WNW,4.6,-,N/A,,Clear,300,2011-10-09 16:51:00
1:51 PM,82.0,51.1,34,30.33,10.0,NW,4.6,-,N/A,,Clear,310,2011-10-09 17:51:00
2:51 PM,84.0,48.9,29,30.31,10.0,Calm,Calm,-,N/A,,Clear,0,2011-10-09 18:51:00
3:51 PM,84.0,50.0,31,30.29,10.0,NW,6.9,-,N/A,,Clear,320,2011-10-09 19:51:00
4:51 PM,84.0,51.1,32,30.29,10.0,NW,4.6,-,N/A,,Clear,320,2011-10-09 20:51:00
5:51 PM,79.0,53.1,40,30.29,10.0,WNW,5.8,-,N/A,,Partly Cloudy,300,2011-10-09 21:51:00
6:51 PM,78.8,50.0,36,30.29,10.0,Calm,Calm,-,N/A,,Partly Cloudy,0,2011-10-09 22:51:00
7:51 PM,78.1,50.0,37,30.29,10.0,Calm,Calm,-,N/A,,Partly Cloudy,0,2011-10-09 23:51:00
8:51 PM,75.0,53.1,46,30.29,10.0,Calm,Calm,-,N/A,,Clear,0,2011-10-10 00:51:00
9:51 PM,72.0,55.9,57,30.28,10.0,WNW,4.6,-,N/A,,Clear,290,2011-10-10 01:51:00
10:51 PM,71.1,55.9,59,30.29,10.0,NW,6.9,-,N/A,,Clear,310,2011-10-10 02:51:00
11:51 PM,71.1,54.0,55,30.28,10.0,NW,5.8,-,N/A,,Clear,310,2011-10-10 03:51:00